TimeEST,TemperatureF,Dew PointF,Humidity,Sea Level PressureIn,VisibilityMPH,Wind Direction,Wind SpeedMPH,Gust SpeedMPH,PrecipitationIn,Events,Conditions,WindDirDegrees,DateUTC
12:15 AM,29.1,27.5,94,30.22,10.0,Calm,Calm,-,N/A,,Clear,0,2013-01-20 05:15:00
12:35 AM,28.8,27.3,94,30.22,10.0,Calm,Calm,-,N/A,,Clear,0,2013-01-20 05:35:00
12:55 AM,28.6,27.5,96,30.22,10.0,Calm,Calm,-,N/A,,Clear,0,2013-01-20 05:55:00
1:15 AM,29.1,27.1,92,30.21,10.0,Calm,Calm,-,N/A,,Clear,0,2013-01-20 06:15:00
1:35 AM,27.5,26.2,95,30.21,10.0,Calm,Calm,-,N/A,,Clear,0,2013-01-20 06:35:00
1:55 AM,27.5,27.0,98,30.21,10.0,Calm,Calm,-,N/A,,Clear,0,2013-01-20 06:55:00
2:15 AM,28.2,26.4,93,30.21,10.0,Calm,Calm,-,N/A,,Clear,0,2013-01-20 07:15:00
2:35 AM,27.1,26.2,96,30.21,10.0,Calm,Calm,-,N/A,,Clear,0,2013-01-20 07:35:00
3:15 AM,27.1,26.6,98,30.21,10.0,Calm,Calm,-,N/A,,Clear,0,2013-01-20 08:15:00
3:35 AM,26.6,26.1,98,30.21,7.0,Calm,Calm,-,N/A,,Clear,0,2013-01-20 08:35:00
3:55 AM,25.5,24.1,94,30.21,10.0,Calm,Calm,-,N/A,,Clear,0,2013-01-20 08:55:00
4:15 AM,25.7,24.4,95,30.21,10.0,Calm,Calm,-,N/A,,Clear,0,2013-01-20 09:15:00
4:35 AM,26.2,25.3,96,30.20,10.0,Calm,Calm,-,N/A,,Clear,0,2013-01-20 09:35:00
4:55 AM,26.6,26.2,99,30.20,10.0,Calm,Calm,-,N/A,,Clear,0,2013-01-20 09:55:00
5:15 AM,25.9,24.4,94,30.19,10.0,Calm,Calm,-,N/A,,Clear,0,2013-01-20 10:15:00
5:35 AM,25.3,24.8,98,30.19,7.0,Calm,Calm,-,N/A,,Clear,0,2013-01-20 10:35:00
5:55 AM,26.2,25.2,96,30.19,10.0,Calm,Calm,-,N/A,,Clear,0,2013-01-20 10:55:00
6:15 AM,24.8,24.1,97,30.19,7.0,Calm,Calm,-,N/A,,Clear,0,2013-01-20 11:15:00
6:35 AM,25.3,24.3,96,30.19,7.0,Calm,Calm,-,N/A,,Clear,0,2013-01-20 11:35:00
7:15 AM,24.8,23.7,96,30.20,10.0,Calm,Calm,-,N/A,,Clear,0,2013-01-20 12:15:00
7:35 AM,26.1,25.5,98,30.20,7.0,Calm,Calm,-,N/A,,Clear,0,2013-01-20 12:35:00
8:15 AM,25.5,24.6,96,30.20,10.0,Calm,Calm,-,N/A,,Clear,0,2013-01-20 13:15:00
8:35 AM,27.5,26.4,96,30.20,10.0,Calm,Calm,-,N/A,,Clear,0,2013-01-20 13:35:00
8:55 AM,29.3,27.9,94,30.20,10.0,Calm,Calm,-,N/A,,Clear,0,2013-01-20 13:55:00
9:15 AM,30.2,28.2,92,30.20,10.0,Calm,Calm,-,N/A,,Clear,0,2013-01-20 14:15:00
9:35 AM,31.5,28.4,88,30.20,10.0,Calm,Calm,-,N/A,,Clear,0,2013-01-20 14:35:00
9:55 AM,33.3,29.8,87,30.20,10.0,Calm,Calm,-,N/A,,Clear,0,2013-01-20 14:55:00
10:15 AM,35.2,30.4,82,30.20,10.0,Calm,Calm,-,N/A,,Clear,0,2013-01-20 15:15:00
10:35 AM,38.1,30.6,74,30.20,10.0,Calm,Calm,-,N/A,,Clear,0,2013-01-20 15:35:00
10:55 AM,40.8,32.2,71,30.19,10.0,Calm,Calm,-,N/A,,Clear,0,2013-01-20 15:55:00
11:15 AM,43.9,32.0,63,30.18,10.0,SW,3.5,-,N/A,,Clear,230,2013-01-20 16:15:00
11:35 AM,46.8,33.4,60,30.18,10.0,West,4.6,-,N/A,,Clear,260,2013-01-20 16:35:00
11:55 AM,48.4,33.3,56,30.17,10.0,WSW,5.8,-,N/A,,Clear,240,2013-01-20 16:55:00
12:15 PM,49.5,33.3,54,30.16,10.0,West,6.9,-,N/A,,Clear,260,2013-01-20 17:15:00
12:35 PM,50.5,33.4,52,30.15,10.0,West,6.9,-,N/A,,Clear,260,2013-01-20 17:35:00
1:15 PM,52.5,33.8,49,30.12,10.0,West,8.1,-,N/A,,Clear,260,2013-01-20 18:15:00
1:35 PM,53.6,34.2,48,30.12,10.0,WSW,5.8,-,N/A,,Clear,240,2013-01-20 18:35:00
1:55 PM,54.0,33.4,46,30.11,10.0,Calm,Calm,-,N/A,,Clear,0,2013-01-20 18:55:00
2:15 PM,55.6,35.6,47,30.10,10.0,WSW,8.1,-,N/A,,Clear,250,2013-01-20 19:15:00
2:35 PM,55.0,32.7,43,30.10,10.0,WSW,3.5,-,N/A,,Clear,250,2013-01-20 19:35:00
2:55 PM,56.3,32.2,40,30.08,10.0,Calm,Calm,-,N/A,,Clear,0,2013-01-20 19:55:00
3:15 PM,57.2,31.8,38,30.08,10.0,WSW,4.6,-,N/A,,Clear,250,2013-01-20 20:15:00
3:35 PM,57.2,31.5,38,30.07,10.0,SSW,6.9,-,N/A,,Clear,210,2013-01-20 20:35:00
3:55 PM,56.8,31.3,38,30.08,10.0,SSW,8.1,-,N/A,,Clear,210,2013-01-20 20:55:00
4:15 PM,56.8,30.4,37,30.08,10.0,SW,9.2,-,N/A,,Clear,220,2013-01-20 21:15:00
4:35 PM,56.5,27.5,33,30.09,10.0,WSW,9.2,-,N/A,,Clear,240,2013-01-20 21:35:00
4:55 PM,55.4,27.1,34,30.09,10.0,Calm,Calm,-,N/A,,Clear,0,2013-01-20 21:55:00
5:15 PM,53.6,29.3,39,30.10,10.0,North,6.9,-,N/A,,Clear,360,2013-01-20 22:15:00
5:35 PM,51.8,30.0,43,30.11,10.0,Calm,Calm,-,N/A,,Clear,0,2013-01-20 22:35:00
5:55 PM,49.1,30.7,49,30.11,10.0,Calm,Calm,-,N/A,,Clear,0,2013-01-20 22:55:00
6:15 PM,46.0,31.5,57,30.11,10.0,Calm,Calm,-,N/A,,Clear,0,2013-01-20 23:15:00
6:35 PM,44.1,32.0,63,30.12,10.0,Calm,Calm,-,N/A,,Clear,0,2013-01-20 23:35:00
6:55 PM,40.3,32.2,73,30.13,10.0,Calm,Calm,-,N/A,,Clear,0,2013-01-20 23:55:00
7:15 PM,39.6,32.0,74,30.13,10.0,Calm,Calm,-,N/A,,Clear,0,2013-01-21 00:15:00
7:55 PM,37.0,32.0,82,30.13,10.0,Calm,Calm,-,N/A,,Clear,0,2013-01-21 00:55:00
8:15 PM,36.0,32.0,86,30.13,10.0,Calm,Calm,-,N/A,,Clear,0,2013-01-21 01:15:00
8:35 PM,35.8,31.8,86,30.13,10.0,Calm,Calm,-,N/A,,Clear,0,2013-01-21 01:35:00
8:55 PM,32.5,31.3,95,30.13,10.0,Calm,Calm,-,N/A,,Clear,0,2013-01-21 01:55:00
9:15 PM,34.2,31.5,90,30.13,10.0,Calm,Calm,-,N/A,,Clear,0,2013-01-21 02:15:00
9:35 PM,32.2,30.6,94,30.13,10.0,Calm,Calm,-,N/A,,Clear,0,2013-01-21 02:35:00
9:55 PM,32.2,30.2,92,30.13,10.0,Calm,Calm,-,N/A,,Clear,0,2013-01-21 02:55:00
10:15 PM,31.5,30.7,97,30.13,10.0,Calm,Calm,-,N/A,,Clear,0,2013-01-21 03:15:00
10:35 PM,31.3,29.5,93,30.13,10.0,Calm,Calm,-,N/A,,Clear,0,2013-01-21 03:35:00
10:55 PM,30.4,29.1,95,30.12,10.0,Calm,Calm,-,N/A,,Clear,0,2013-01-21 03:55:00
11:15 PM,31.1,29.8,95,30.13,10.0,Calm,Calm,-,N/A,,Clear,0,2013-01-21 04:15:00
11:35 PM,30.6,28.9,94,30.13,10.0,Calm,Calm,-,N/A,,Clear,0,2013-01-21 04:35:00
11:55 PM,29.1,28.2,96,30.12,10.0,Calm,Calm,-,N/A,,Clear,0,2013-01-21 04:55:00